Location: Albany
(35.0170°S, 117.8920°E)
Time: 02:51:49
(UTC+08:00)

Vanguard 1 - Pass Details

Date: 28 January 2021
Orbit: 649 x 3833 km, 34.2° (Epoch: 26 February)

Event Time Altitude Azimuth Distance (km) Brightness Sun altitude
Rises 07:44:09 0° 282° (WNW) 3,247 12.2 27.0°
Reaches altitude 10° 07:48:33 10° 319° (NW) 2,703 12.0 27.9°
Maximum altitude 07:50:14 11° 334° (NNW) 2,800 12.2 28.3°
Drops below altitude 10° 07:52:07 10° 350° (N) 3,087 12.6 28.6°
Sets 07:58:45 0° 21° (NNE) 4,858 13.8 30.0°
